Voltar ao catálogo

SL-14 DEB

AtivoPO
NORAD 45274·DEBRIS·🇷🇺 Russia

Lançado Aug 15, 1991 de Plesetsk Cosmodrome

Loading…

Próximas Passagens (próximas 24 horas)

TLE

AtualizadoSource: Space-Track

Época: Sep 14, 2026, 10:59 UTC

1 45274U 91056L   26257.45787936  .00000185  00000-0  44379-3 0  9998
2 45274  82.5337  71.7110 0027317 282.3008  77.5057 13.17790105316489

Acompanhe SL-14 DEB em tempo real com AllMySat

Download on the App Store